Rugby, ND

1:46 PM CST on December 17, 2017 (GMT -0600)
Rugby Municipal

Weather History for KRUG - March, 2014

Change the Weather History Date:

Sunday, March 23, 2014

  Actual Average Record
Temperature  
Mean Temperature 12 °F -  
Max Temperature 21 °F 37 °F 74 °F (1963)
Min Temperature 3 °F 18 °F -24 °F (1974)
Degree Days  
Heating Degree Days 53    
Moisture  
Dew Point 5 °F    
Average Humidity 74    
Maximum Humidity 100    
Minimum Humidity 57    
Precipitation  
Precipitation 0.00 in - - ()
Sea Level Pressure  
Sea Level Pressure 30.36 in    
Wind  
Wind Speed 5 mph (WNW)    
Max Wind Speed 10 mph    
Max Gust Speed -    
Visibility 10 miles    
Events      
Averages and records for this station are not official NWS values.
T = Trace of Precipitation, MM = Missing Value Source: NWS Daily Summary

Daily Weather History Graph

Daily Weather History Graph

Search for Another Location

Airport or City:

Trip Planner

Search our weather history database for the weather conditions in past years. The results will help you decide how hot, cold, wet, or windy it might be!

Date:

Astronomy

Mar. 23, 2014 Rise Set
Actual Time 7:36 AM CDT 7:57 PM CDT
Civil Twilight 7:05 AM CDT 8:28 PM CDT
Nautical Twilight 6:28 AM CDT 9:05 PM CDT
Astronomical Twilight 5:50 AM CDT 9:44 PM CDT
Moon 2:38 AM CDT (3/23) 11:56 AM CDT (3/23)
Length of Visible Light 13h 23m
Length of Day
12h 20m
Waning Gibbous, 54% of the Moon is Illuminated
Mar 23
Waning Gibbous
Mar 23
Last Quarter
Mar 30
New
Apr 7
First Quarter
Apr 15
Full

Hourly Weather History & Observations

Time (CDT) Temp. Windchill Dew Point Humidity Pressure Visibility Wind Dir Wind Speed Gust Speed Precip Events Conditions
12:15 AM 6.8 °F -5.9 °F 1.4 °F 79% 30.48 in 10.0 mi NW 8.1 mph - N/A   Clear
12:35 AM 6.8 °F -4.8 °F 1.4 °F 79% 30.48 in 10.0 mi NW 6.9 mph - N/A   Clear
12:55 AM 6.8 °F -4.8 °F 1.4 °F 79% 30.47 in 10.0 mi NW 6.9 mph - N/A   Clear
1:15 AM 6.8 °F -3.5 °F 1.4 °F 79% 30.47 in 10.0 mi WNW 5.8 mph - N/A   Clear
1:35 AM 6.8 °F -3.5 °F 1.4 °F 79% 30.47 in 10.0 mi WNW 5.8 mph - N/A   Clear
1:55 AM 6.8 °F -2.0 °F 1.4 °F 79% 30.46 in 10.0 mi NW 4.6 mph - N/A   Clear
2:15 AM 6.8 °F -2.0 °F 1.4 °F 79% 30.46 in 10.0 mi NW 4.6 mph - N/A   Clear
2:35 AM 5.0 °F -4.1 °F 1.4 °F 85% 30.46 in 10.0 mi WNW 4.6 mph - N/A   Clear
2:55 AM 5.0 °F -2.1 °F 1.4 °F 85% 30.46 in 10.0 mi WNW 3.5 mph - N/A   Clear
3:15 AM 5.0 °F -5.6 °F -0.4 °F 78% 30.45 in 10.0 mi West 5.8 mph - N/A   Clear
3:35 AM 5.0 °F -4.1 °F -0.4 °F 78% 30.45 in 10.0 mi West 4.6 mph - N/A   Clear
3:55 AM 5.0 °F -2.1 °F 1.4 °F 85% 30.44 in 10.0 mi WNW 3.5 mph - N/A   Clear
4:15 AM 5.0 °F -2.1 °F 1.4 °F 85% 30.44 in 10.0 mi WNW 3.5 mph - N/A   Clear
4:35 AM 5.0 °F -2.1 °F -0.4 °F 78% 30.44 in 10.0 mi West 3.5 mph - N/A   Clear
4:55 AM 5.0 °F -4.1 °F 1.4 °F 85% 30.43 in 10.0 mi West 4.6 mph - N/A   Clear
5:15 AM 5.0 °F -4.1 °F -0.4 °F 78% 30.43 in 10.0 mi NW 4.6 mph - N/A   Clear
5:35 AM 5.0 °F - -0.4 °F 78% 30.42 in 10.0 mi Calm Calm - N/A   Clear
5:55 AM 5.0 °F -2.1 °F -0.4 °F 78% 30.42 in 10.0 mi WNW 3.5 mph - N/A   Clear
6:15 AM 5.0 °F -2.1 °F -0.4 °F 78% 30.42 in 10.0 mi NW 3.5 mph - N/A   Clear
6:35 AM 5.0 °F -2.1 °F -0.4 °F 78% 30.41 in 10.0 mi WNW 3.5 mph - N/A   Clear
6:55 AM 3.2 °F -6.2 °F -0.4 °F 85% 30.42 in 10.0 mi West 4.6 mph - N/A   Clear
7:15 AM 3.2 °F -6.2 °F -0.4 °F 85% 30.42 in 10.0 mi West 4.6 mph - N/A   Clear
7:35 AM 3.2 °F -4.2 °F -0.4 °F 85% 30.41 in 10.0 mi NW 3.5 mph - N/A   Clear
7:55 AM 5.0 °F - -0.4 °F 78% 30.41 in 10.0 mi Calm Calm - N/A   Clear
8:15 AM 5.0 °F - -0.4 °F 78% 30.40 in 10.0 mi Calm Calm - N/A   Clear
8:35 AM 5.0 °F - -0.4 °F 78% 30.40 in 10.0 mi Calm Calm - N/A   Clear
8:55 AM 6.8 °F - -0.4 °F 72% 30.40 in 10.0 mi Calm Calm - N/A   Clear
9:15 AM 6.8 °F -0.1 °F -0.4 °F 72% 30.40 in 10.0 mi WSW 3.5 mph - N/A   Clear
9:35 AM 8.6 °F 2.0 °F 1.4 °F 73% 30.40 in 10.0 mi WSW 3.5 mph - N/A   Clear
9:55 AM 8.6 °F -1.3 °F 1.4 °F 73% 30.40 in 10.0 mi WSW 5.8 mph - N/A   Clear
10:15 AM 10.4 °F 2.2 °F 3.2 °F 73% 30.40 in 10.0 mi WSW 4.6 mph - N/A   Clear
10:35 AM 10.4 °F 2.2 °F 3.2 °F 73% 30.39 in 10.0 mi NW 4.6 mph - N/A   Clear
10:55 AM 12.2 °F 0.7 °F 3.2 °F 67% 30.39 in 10.0 mi WNW 8.1 mph - N/A   Clear
11:15 AM 12.2 °F 1.7 °F 1.4 °F 62% 30.39 in 10.0 mi West 6.9 mph - N/A   Clear
11:35 AM 14.0 °F 5.1 °F 1.4 °F 57% 30.38 in 10.0 mi WNW 5.8 mph - N/A   Clear
11:55 AM 14.0 °F 6.5 °F 3.2 °F 62% 30.38 in 10.0 mi North 4.6 mph - N/A   Clear
12:15 PM 14.0 °F 8.2 °F 3.2 °F 62% 30.37 in 10.0 mi WNW 3.5 mph - N/A   Clear
12:35 PM 15.8 °F 8.6 °F 5.0 °F 62% 30.37 in 10.0 mi West 4.6 mph - N/A   Clear
12:55 PM 15.8 °F 10.2 °F 5.0 °F 62% 30.36 in 10.0 mi WNW 3.5 mph - N/A   Clear
1:15 PM 15.8 °F - 5.0 °F 62% 30.35 in 10.0 mi Calm Calm - N/A   Clear
1:35 PM 17.6 °F 10.7 °F 6.8 °F 63% 30.34 in 10.0 mi NNW 4.6 mph - N/A   Clear
1:55 PM 17.6 °F 10.7 °F 6.8 °F 63% 30.34 in 10.0 mi WNW 4.6 mph - N/A   Clear
2:15 PM 17.6 °F 9.3 °F 6.8 °F 63% 30.33 in 10.0 mi West 5.8 mph - N/A   Clear
2:35 PM 19.4 °F 12.8 °F 8.6 °F 63% 30.32 in 10.0 mi West 4.6 mph - N/A   Partly Cloudy
2:55 PM 19.4 °F 10.4 °F 8.6 °F 63% 30.31 in 10.0 mi North 6.9 mph - N/A   Partly Cloudy
3:15 PM 21.2 °F 11.7 °F 10.4 °F 63% 30.31 in 10.0 mi West 8.1 mph - N/A   Partly Cloudy
3:35 PM 19.4 °F 12.8 °F 8.6 °F 63% 30.30 in 10.0 mi West 4.6 mph - N/A   Partly Cloudy
3:55 PM 19.4 °F 12.8 °F 6.8 °F 58% 30.29 in 10.0 mi North 4.6 mph - N/A   Scattered Clouds
4:15 PM 19.4 °F 11.5 °F 8.6 °F 63% 30.29 in 10.0 mi NW 5.8 mph - N/A   Mostly Cloudy
4:35 PM 19.4 °F 10.4 °F 10.4 °F 68% 30.28 in 10.0 mi NW 6.9 mph - N/A   Partly Cloudy
4:55 PM 21.2 °F 10.9 °F 10.4 °F 63% 30.28 in 10.0 mi NNW 9.2 mph - N/A   Clear
5:15 PM 21.2 °F 10.1 °F 10.4 °F 63% 30.28 in 10.0 mi NNW 10.4 mph - N/A   Clear
5:35 PM 21.2 °F 10.9 °F 10.4 °F 63% 30.28 in 10.0 mi NNE 9.2 mph - N/A   Clear
5:55 PM 19.4 °F 8.6 °F 10.4 °F 68% 30.27 in 10.0 mi North 9.2 mph - N/A   Clear
6:15 PM 19.4 °F 11.5 °F 10.4 °F 68% 30.27 in 10.0 mi North 5.8 mph - N/A   Clear
6:35 PM 19.4 °F 14.3 °F 8.6 °F 63% 30.27 in 10.0 mi NE 3.5 mph - N/A   Clear
6:55 PM 19.4 °F 12.8 °F 10.4 °F 68% 30.27 in 10.0 mi North 4.6 mph - N/A   Clear
7:15 PM 19.4 °F 12.8 °F 10.4 °F 68% 30.27 in 10.0 mi NNW 4.6 mph - N/A   Clear
7:35 PM 19.4 °F 12.8 °F 8.6 °F 63% 30.27 in 10.0 mi NNE 4.6 mph - N/A   Clear
7:55 PM 19.4 °F 10.4 °F 12.2 °F 74% 30.27 in 10.0 mi ENE 6.9 mph - N/A   Clear
8:15 PM 17.6 °F 9.3 °F 12.2 °F 79% 30.27 in 10.0 mi East 5.8 mph - N/A   Clear
8:35 PM 17.6 °F 10.7 °F 10.4 °F 73% 30.28 in 10.0 mi ESE 4.6 mph - N/A   Clear
8:55 PM 15.8 °F 8.6 °F 12.2 °F 86% 30.28 in 10.0 mi SE 4.6 mph - N/A   Clear
9:15 PM 17.6 °F 12.3 °F 10.4 °F 73% 30.28 in 10.0 mi SE 3.5 mph - N/A   Clear
9:35 PM 17.6 °F - 10.4 °F 73% 30.28 in 10.0 mi Calm Calm - N/A   Clear
9:55 PM 15.8 °F 10.2 °F 10.4 °F 79% 30.29 in 10.0 mi SSE 3.5 mph - N/A   Clear
10:15 PM 15.8 °F - 12.2 °F 86% 30.29 in 10.0 mi Calm Calm - N/A   Clear
10:35 PM 15.8 °F 8.6 °F 10.4 °F 79% 30.29 in 10.0 mi SSW 4.6 mph - N/A   Clear
10:55 PM 15.8 °F 10.2 °F 10.4 °F 79% 30.29 in 10.0 mi SW 3.5 mph - N/A   Clear
11:15 PM 15.8 °F 10.2 °F 14.0 °F 93% 30.29 in 10.0 mi WSW 3.5 mph - N/A   Clear
11:35 PM 14.0 °F 6.5 °F 14.0 °F 100% 30.29 in 10.0 mi WSW 4.6 mph - N/A   Clear
11:55 PM 14.0 °F 5.1 °F 12.2 °F 93% 30.28 in 10.0 mi WSW 5.8 mph - N/A   Clear